Year,Month,Day,Hour,Minute,Value (Times are PST for temperature in C)
2014,07,04,00,00,14.20
2014,07,04,00,01,14.20
2014,07,04,00,02,14.20
2014,07,04,00,03,14.10
2014,07,04,00,04,14.10
2014,07,04,00,05,14.10
2014,07,04,00,06,14.10
2014,07,04,00,07,14.10
2014,07,04,00,08,14.10
2014,07,04,00,09,14.10
2014,07,04,00,10,14.10
2014,07,04,00,11,14.10
2014,07,04,00,12,14.10
2014,07,04,00,13,14.10
2014,07,04,00,14,14.10
2014,07,04,00,15,14.00
2014,07,04,00,16,14.00
2014,07,04,00,17,14.00
2014,07,04,00,18,14.00
2014,07,04,00,19,14.00
2014,07,04,00,20,14.00
2014,07,04,00,21,13.90
2014,07,04,00,22,13.90
2014,07,04,00,23,13.90
2014,07,04,00,24,13.90
2014,07,04,00,25,13.90
2014,07,04,00,26,13.90
2014,07,04,00,27,13.90
2014,07,04,00,28,13.90
2014,07,04,00,29,13.90
2014,07,04,00,30,13.80
2014,07,04,00,31,13.80
2014,07,04,00,32,13.80
2014,07,04,00,33,13.80
2014,07,04,00,34,13.80
2014,07,04,00,35,13.80
2014,07,04,00,36,13.80
2014,07,04,00,37,13.70
2014,07,04,00,38,13.70
2014,07,04,00,39,13.70
2014,07,04,00,40,13.70
2014,07,04,00,41,13.70
2014,07,04,00,42,13.70
2014,07,04,00,43,13.70
2014,07,04,00,44,13.70
2014,07,04,00,45,13.70
2014,07,04,00,46,13.70
2014,07,04,00,47,13.70
2014,07,04,00,48,13.70
2014,07,04,00,49,13.70
2014,07,04,00,50,13.70
2014,07,04,00,51,13.70
2014,07,04,00,52,13.60
2014,07,04,00,53,13.60
2014,07,04,00,54,13.60
2014,07,04,00,55,13.60
2014,07,04,00,56,13.60
2014,07,04,00,57,13.60
2014,07,04,00,58,13.60
2014,07,04,00,59,13.60
2014,07,04,01,00,13.50
2014,07,04,01,01,13.50
2014,07,04,01,02,13.50
2014,07,04,01,03,13.50
2014,07,04,01,04,13.50
2014,07,04,01,05,13.50
2014,07,04,01,06,13.40
2014,07,04,01,07,13.40
2014,07,04,01,08,13.40
2014,07,04,01,09,13.40
2014,07,04,01,10,13.40
2014,07,04,01,11,13.40
2014,07,04,01,12,13.30
2014,07,04,01,13,13.30
2014,07,04,01,14,13.30
2014,07,04,01,15,13.30
2014,07,04,01,16,13.30
2014,07,04,01,17,13.30
2014,07,04,01,18,13.30
2014,07,04,01,19,13.30
2014,07,04,01,20,13.30
2014,07,04,01,21,13.30
2014,07,04,01,22,13.30
2014,07,04,01,23,13.30
2014,07,04,01,24,13.30
2014,07,04,01,25,13.30
2014,07,04,01,26,13.30
2014,07,04,01,27,13.30
2014,07,04,01,28,13.20
2014,07,04,01,29,13.20
2014,07,04,01,30,13.20
2014,07,04,01,31,13.20
2014,07,04,01,32,13.20
2014,07,04,01,33,13.20
2014,07,04,01,34,13.20
2014,07,04,01,35,13.20
2014,07,04,01,36,13.20
2014,07,04,01,37,13.20
2014,07,04,01,38,13.20
2014,07,04,01,39,13.20
2014,07,04,01,40,13.20
2014,07,04,01,41,13.20
2014,07,04,01,42,13.20
2014,07,04,01,43,13.10
2014,07,04,01,44,13.10
2014,07,04,01,45,13.10
2014,07,04,01,46,13.10
2014,07,04,01,47,13.10
2014,07,04,01,48,13.10
2014,07,04,01,49,13.10
2014,07,04,01,50,13.00
2014,07,04,01,51,13.00
2014,07,04,01,52,13.00
2014,07,04,01,53,13.00
2014,07,04,01,54,13.00
2014,07,04,01,55,13.00
2014,07,04,01,56,13.00
2014,07,04,01,57,13.00
2014,07,04,01,58,13.00
2014,07,04,01,59,12.90
2014,07,04,02,00,12.90
2014,07,04,02,01,12.90
2014,07,04,02,02,12.90
2014,07,04,02,03,12.90
2014,07,04,02,04,12.80
2014,07,04,02,05,12.80
2014,07,04,02,06,12.80
2014,07,04,02,07,12.80
2014,07,04,02,08,12.80
2014,07,04,02,09,12.80
2014,07,04,02,10,12.80
2014,07,04,02,11,12.80
2014,07,04,02,12,12.70
2014,07,04,02,13,12.70
2014,07,04,02,14,12.70
2014,07,04,02,15,12.70
2014,07,04,02,16,12.70
2014,07,04,02,17,12.60
2014,07,04,02,18,12.60
2014,07,04,02,19,12.60
2014,07,04,02,20,12.60
2014,07,04,02,21,12.60
2014,07,04,02,22,12.60
2014,07,04,02,23,12.50
2014,07,04,02,24,12.50
2014,07,04,02,25,12.50
2014,07,04,02,26,12.50
2014,07,04,02,27,12.50
2014,07,04,02,28,12.50
2014,07,04,02,29,12.40
2014,07,04,02,30,12.40
2014,07,04,02,31,12.40
2014,07,04,02,32,12.30
2014,07,04,02,33,12.30
2014,07,04,02,34,12.30
2014,07,04,02,35,12.30
2014,07,04,02,36,12.30
2014,07,04,02,37,12.30
2014,07,04,02,38,12.30
2014,07,04,02,39,12.30
2014,07,04,02,40,12.30
2014,07,04,02,41,12.20
2014,07,04,02,42,12.20
2014,07,04,02,43,12.20
2014,07,04,02,44,12.10
2014,07,04,02,45,12.10
2014,07,04,02,46,12.10
2014,07,04,02,47,12.10
2014,07,04,02,48,12.10
2014,07,04,02,49,12.10
2014,07,04,02,50,12.10
2014,07,04,02,51,12.10
2014,07,04,02,52,12.10
2014,07,04,02,53,12.00
2014,07,04,02,54,12.00
2014,07,04,02,55,12.00
2014,07,04,02,56,12.00
2014,07,04,02,57,12.00
2014,07,04,02,58,12.00
2014,07,04,02,59,12.00
2014,07,04,03,00,12.00
2014,07,04,03,01,11.90
2014,07,04,03,02,11.90
2014,07,04,03,03,11.90
2014,07,04,03,04,11.90
2014,07,04,03,05,11.90
2014,07,04,03,06,11.90
2014,07,04,03,07,11.90
2014,07,04,03,08,11.90
2014,07,04,03,09,11.90
2014,07,04,03,10,11.90
2014,07,04,03,11,11.90
2014,07,04,03,12,11.80
2014,07,04,03,13,11.80
2014,07,04,03,14,11.80
2014,07,04,03,15,11.80
2014,07,04,03,16,11.80
2014,07,04,03,17,11.80
2014,07,04,03,18,11.80
2014,07,04,03,19,11.80
2014,07,04,03,20,11.80
2014,07,04,03,21,11.80
2014,07,04,03,22,11.80
2014,07,04,03,23,11.80
2014,07,04,03,24,11.80
2014,07,04,03,25,11.80
2014,07,04,03,26,11.80
2014,07,04,03,27,11.80
2014,07,04,03,28,11.80
2014,07,04,03,29,11.80
2014,07,04,03,30,11.80
2014,07,04,03,31,11.80
2014,07,04,03,32,11.70
2014,07,04,03,33,11.70
2014,07,04,03,34,11.70
2014,07,04,03,35,11.70
2014,07,04,03,36,11.60
2014,07,04,03,37,11.60
2014,07,04,03,38,11.60
2014,07,04,03,39,11.60
2014,07,04,03,40,11.60
2014,07,04,03,41,11.60
2014,07,04,03,42,11.60
2014,07,04,03,43,11.60
2014,07,04,03,44,11.60
2014,07,04,03,45,11.60
2014,07,04,03,46,11.60
2014,07,04,03,47,11.60
2014,07,04,03,48,11.60
2014,07,04,03,49,11.60
2014,07,04,03,50,11.60
2014,07,04,03,51,11.60
2014,07,04,03,52,11.60
2014,07,04,03,53,11.60
2014,07,04,03,54,11.60
2014,07,04,03,55,11.60
2014,07,04,03,56,11.50
2014,07,04,03,57,11.50
2014,07,04,03,58,11.40
2014,07,04,03,59,11.40
2014,07,04,04,00,11.40
2014,07,04,04,01,11.40
2014,07,04,04,02,11.40
2014,07,04,04,03,11.40
2014,07,04,04,04,11.40
2014,07,04,04,05,11.40
2014,07,04,04,06,11.40
2014,07,04,04,07,11.40
2014,07,04,04,08,11.40
2014,07,04,04,09,11.40
2014,07,04,04,10,11.30
2014,07,04,04,11,11.30
2014,07,04,04,12,11.30
2014,07,04,04,13,11.30
2014,07,04,04,14,11.30
2014,07,04,04,15,11.30
2014,07,04,04,16,11.30
2014,07,04,04,17,11.30
2014,07,04,04,18,11.30
2014,07,04,04,19,11.30
2014,07,04,04,20,11.20
2014,07,04,04,21,11.20
2014,07,04,04,22,11.20
2014,07,04,04,23,11.20
2014,07,04,04,24,11.20
2014,07,04,04,25,11.20
2014,07,04,04,26,11.20
2014,07,04,04,27,11.20
2014,07,04,04,28,11.10
2014,07,04,04,29,11.10
2014,07,04,04,30,11.10
2014,07,04,04,31,11.10
2014,07,04,04,32,11.10
2014,07,04,04,33,11.10
2014,07,04,04,34,11.10
2014,07,04,04,35,11.10
2014,07,04,04,36,11.10
2014,07,04,04,37,11.10
2014,07,04,04,38,11.10
2014,07,04,04,39,11.10
2014,07,04,04,40,11.10
2014,07,04,04,41,11.10
2014,07,04,04,42,11.10
2014,07,04,04,43,11.10
2014,07,04,04,44,11.10
2014,07,04,04,45,11.10
2014,07,04,04,46,11.10
2014,07,04,04,47,11.10
2014,07,04,04,48,11.10
2014,07,04,04,49,11.10
2014,07,04,04,50,11.10
2014,07,04,04,51,11.10
2014,07,04,04,52,11.10
2014,07,04,04,53,11.10
2014,07,04,04,54,11.00
2014,07,04,04,55,10.90
2014,07,04,04,56,10.90
2014,07,04,04,57,10.90
2014,07,04,04,58,10.90
2014,07,04,04,59,10.90
2014,07,04,05,00,10.90
2014,07,04,05,01,10.90
2014,07,04,05,02,10.90
2014,07,04,05,03,10.90
2014,07,04,05,04,10.90
2014,07,04,05,05,10.90
2014,07,04,05,06,10.90
2014,07,04,05,07,10.80
2014,07,04,05,08,10.80
2014,07,04,05,09,10.80
2014,07,04,05,10,10.80
2014,07,04,05,11,10.80
2014,07,04,05,12,10.80
2014,07,04,05,13,10.80
2014,07,04,05,14,10.80
2014,07,04,05,15,10.80
2014,07,04,05,16,10.70
2014,07,04,05,17,10.70
2014,07,04,05,18,10.70
2014,07,04,05,19,10.70
2014,07,04,05,20,10.70
2014,07,04,05,21,10.60
2014,07,04,05,22,10.60
2014,07,04,05,23,10.60
2014,07,04,05,24,10.60
2014,07,04,05,25,10.60
2014,07,04,05,26,10.60
2014,07,04,05,27,10.60
2014,07,04,05,28,10.60
2014,07,04,05,29,10.60
2014,07,04,05,30,10.60
2014,07,04,05,31,10.60
2014,07,04,05,32,10.60
2014,07,04,05,33,10.60
2014,07,04,05,34,10.40
2014,07,04,05,35,10.40
2014,07,04,05,36,10.40
2014,07,04,05,37,10.40
2014,07,04,05,38,10.40
2014,07,04,05,39,10.40
2014,07,04,05,40,10.40
2014,07,04,05,41,10.50
2014,07,04,05,42,10.60
2014,07,04,05,43,10.60
2014,07,04,05,44,10.60
2014,07,04,05,45,10.60
2014,07,04,05,46,10.60
2014,07,04,05,47,10.60
2014,07,04,05,48,10.60
2014,07,04,05,49,10.60
2014,07,04,05,50,10.60
2014,07,04,05,51,10.60
2014,07,04,05,52,10.60
2014,07,04,05,53,10.60
2014,07,04,05,54,10.60
2014,07,04,05,55,10.60
2014,07,04,05,56,10.60
2014,07,04,05,57,10.60
2014,07,04,05,58,10.60
2014,07,04,05,59,10.60
2014,07,04,06,00,10.60
2014,07,04,06,01,10.60
2014,07,04,06,02,10.70
2014,07,04,06,03,10.70
2014,07,04,06,04,10.70
2014,07,04,06,05,10.70
2014,07,04,06,06,10.80
2014,07,04,06,07,10.80
2014,07,04,06,08,10.80
2014,07,04,06,09,10.80
2014,07,04,06,10,10.90
2014,07,04,06,11,10.90
2014,07,04,06,12,10.90
2014,07,04,06,13,10.90
2014,07,04,06,14,10.90
2014,07,04,06,15,11.00
2014,07,04,06,16,11.10
2014,07,04,06,17,11.10
2014,07,04,06,18,11.10
2014,07,04,06,19,11.10
2014,07,04,06,20,11.10
2014,07,04,06,21,11.10
2014,07,04,06,22,11.20
2014,07,04,06,23,11.20
2014,07,04,06,24,11.30
2014,07,04,06,25,11.30
2014,07,04,06,26,11.30
2014,07,04,06,27,11.40
2014,07,04,06,28,11.40
2014,07,04,06,29,11.40
2014,07,04,06,30,11.40
2014,07,04,06,31,11.60
2014,07,04,06,32,11.60
2014,07,04,06,33,11.60
2014,07,04,06,34,11.60
2014,07,04,06,35,11.60
2014,07,04,06,36,11.70
2014,07,04,06,37,11.70
2014,07,04,06,38,11.70
2014,07,04,06,39,11.80
2014,07,04,06,40,11.80
2014,07,04,06,41,11.80
2014,07,04,06,42,11.80
2014,07,04,06,43,11.90
2014,07,04,06,44,11.90
2014,07,04,06,45,11.90
2014,07,04,06,46,11.90
2014,07,04,06,47,12.00
2014,07,04,06,48,12.00
2014,07,04,06,49,12.00
2014,07,04,06,50,12.00
2014,07,04,06,51,12.10
2014,07,04,06,52,12.10
2014,07,04,06,53,12.10
2014,07,04,06,54,12.20
2014,07,04,06,55,12.20
2014,07,04,06,56,12.20
2014,07,04,06,57,12.30
2014,07,04,06,58,12.30
2014,07,04,06,59,12.30
2014,07,04,07,00,12.40
2014,07,04,07,01,12.40
2014,07,04,07,02,12.40
2014,07,04,07,03,12.50
2014,07,04,07,04,12.50
2014,07,04,07,05,12.50
2014,07,04,07,06,12.60
2014,07,04,07,07,12.60
2014,07,04,07,08,12.70
2014,07,04,07,09,12.70
2014,07,04,07,10,12.70
2014,07,04,07,11,12.80
2014,07,04,07,12,12.80
2014,07,04,07,13,12.80
2014,07,04,07,14,12.80
2014,07,04,07,15,12.90
2014,07,04,07,16,13.00
2014,07,04,07,17,13.00
2014,07,04,07,18,13.10
2014,07,04,07,19,13.20
2014,07,04,07,20,13.20
2014,07,04,07,21,13.30
2014,07,04,07,22,13.30
2014,07,04,07,23,13.30
2014,07,04,07,24,13.30
2014,07,04,07,25,13.40
2014,07,04,07,26,13.40
2014,07,04,07,27,13.50
2014,07,04,07,28,13.50
2014,07,04,07,29,13.60
2014,07,04,07,30,13.50
2014,07,04,07,31,13.60
2014,07,04,07,32,13.60
2014,07,04,07,33,13.60
2014,07,04,07,34,13.60
2014,07,04,07,35,13.70
2014,07,04,07,36,13.70
2014,07,04,07,37,13.70
2014,07,04,07,38,13.70
2014,07,04,07,39,13.70
2014,07,04,07,40,13.80
2014,07,04,07,41,13.90
2014,07,04,07,42,14.00
2014,07,04,07,43,14.10
2014,07,04,07,44,14.20
2014,07,04,07,45,14.40
2014,07,04,07,46,14.50
2014,07,04,07,47,14.50
2014,07,04,07,48,14.50
2014,07,04,07,49,14.50
2014,07,04,07,50,14.60
2014,07,04,07,51,14.60
2014,07,04,07,52,14.70
2014,07,04,07,53,14.70
2014,07,04,07,54,14.80
2014,07,04,07,55,14.80
2014,07,04,07,56,14.80
2014,07,04,07,57,14.80
2014,07,04,07,58,14.80
2014,07,04,07,59,14.80
2014,07,04,08,00,14.80
2014,07,04,08,01,14.80
2014,07,04,08,02,14.80
2014,07,04,08,03,14.80
2014,07,04,08,04,14.80
2014,07,04,08,05,14.80
2014,07,04,08,06,14.90
2014,07,04,08,07,14.90
2014,07,04,08,08,15.00
2014,07,04,08,09,15.00
2014,07,04,08,10,15.20
2014,07,04,08,11,15.30
2014,07,04,08,12,15.50
2014,07,04,08,13,15.60
2014,07,04,08,14,15.60
2014,07,04,08,15,15.60
2014,07,04,08,16,15.50
2014,07,04,08,17,15.40
2014,07,04,08,18,15.40
2014,07,04,08,19,15.30
2014,07,04,08,20,15.40
2014,07,04,08,21,15.40
2014,07,04,08,22,15.50
2014,07,04,08,23,15.60
2014,07,04,08,24,15.70
2014,07,04,08,25,15.60
2014,07,04,08,26,15.60
2014,07,04,08,27,15.60
2014,07,04,08,28,15.70
2014,07,04,08,29,15.60
2014,07,04,08,30,15.70
2014,07,04,08,31,15.70
2014,07,04,08,32,15.70
2014,07,04,08,33,15.70
2014,07,04,08,34,15.80
2014,07,04,08,35,15.80
2014,07,04,08,36,15.80
2014,07,04,08,37,15.80
2014,07,04,08,38,15.90
2014,07,04,08,39,15.90
2014,07,04,08,40,15.90
2014,07,04,08,41,15.90
2014,07,04,08,42,15.90
2014,07,04,08,43,15.90
2014,07,04,08,44,15.80
2014,07,04,08,45,15.90
2014,07,04,08,46,16.00
2014,07,04,08,47,16.10
2014,07,04,08,48,16.10
2014,07,04,08,49,16.10
2014,07,04,08,50,16.20
2014,07,04,08,51,16.30
2014,07,04,08,52,16.40
2014,07,04,08,53,16.40
2014,07,04,08,54,16.40
2014,07,04,08,55,16.40
2014,07,04,08,56,16.40
2014,07,04,08,57,16.40
2014,07,04,08,58,16.50
2014,07,04,08,59,16.40
2014,07,04,09,00,16.40
2014,07,04,09,01,16.40
2014,07,04,09,02,16.30
2014,07,04,09,03,16.30
2014,07,04,09,04,16.30
2014,07,04,09,05,16.20
2014,07,04,09,06,16.10
2014,07,04,09,07,16.00
2014,07,04,09,08,15.90
2014,07,04,09,09,15.80
2014,07,04,09,10,15.80
2014,07,04,09,11,15.80
2014,07,04,09,12,15.80
2014,07,04,09,13,15.90
2014,07,04,09,14,16.00
2014,07,04,09,15,16.10
2014,07,04,09,16,16.20
2014,07,04,09,17,16.30
2014,07,04,09,18,16.30
2014,07,04,09,19,16.40
2014,07,04,09,20,16.40
2014,07,04,09,21,16.40
2014,07,04,09,22,16.40
2014,07,04,09,23,16.50
2014,07,04,09,24,16.60
2014,07,04,09,25,16.60
2014,07,04,09,26,16.70
2014,07,04,09,27,16.80
2014,07,04,09,28,16.90
2014,07,04,09,29,16.80
2014,07,04,09,30,16.70
2014,07,04,09,31,16.70
2014,07,04,09,32,16.80
2014,07,04,09,33,16.80
2014,07,04,09,34,16.90
2014,07,04,09,35,16.90
2014,07,04,09,36,16.90
2014,07,04,09,37,16.80
2014,07,04,09,38,16.80
2014,07,04,09,39,16.60
2014,07,04,09,40,16.50
2014,07,04,09,41,16.40
2014,07,04,09,42,16.40
2014,07,04,09,43,16.40
2014,07,04,09,44,16.30
2014,07,04,09,45,16.30
2014,07,04,09,46,16.20
2014,07,04,09,47,16.20
2014,07,04,09,48,16.20
2014,07,04,09,49,16.20
2014,07,04,09,50,16.30
2014,07,04,09,51,16.30
2014,07,04,09,52,16.20
2014,07,04,09,53,16.10
2014,07,04,09,54,16.10
2014,07,04,09,55,16.10
2014,07,04,09,56,16.10
2014,07,04,09,57,16.00
2014,07,04,09,58,15.90
2014,07,04,09,59,15.90
2014,07,04,10,00,16.00
2014,07,04,10,01,16.10
2014,07,04,10,02,16.20
2014,07,04,10,03,16.10
2014,07,04,10,04,16.10
2014,07,04,10,05,16.10
2014,07,04,10,06,16.10
2014,07,04,10,07,16.20
2014,07,04,10,08,16.40
2014,07,04,10,09,16.60
2014,07,04,10,10,16.80
2014,07,04,10,11,17.10
2014,07,04,10,12,17.20
2014,07,04,10,13,17.20
2014,07,04,10,14,17.20
2014,07,04,10,15,17.30
2014,07,04,10,16,17.20
2014,07,04,10,17,17.10
2014,07,04,10,18,17.10
2014,07,04,10,19,17.00
2014,07,04,10,20,16.90
2014,07,04,10,21,16.90
2014,07,04,10,22,16.90
2014,07,04,10,23,17.00
2014,07,04,10,24,17.00
2014,07,04,10,25,17.20
2014,07,04,10,26,17.30
2014,07,04,10,27,17.10
2014,07,04,10,28,17.00
2014,07,04,10,29,17.00
2014,07,04,10,30,17.00
2014,07,04,10,31,17.00
2014,07,04,10,32,17.00
2014,07,04,10,33,16.90
2014,07,04,10,34,17.00
2014,07,04,10,35,17.00
2014,07,04,10,36,17.10
2014,07,04,10,37,17.20
2014,07,04,10,38,17.20
2014,07,04,10,39,17.20
2014,07,04,10,40,17.20
2014,07,04,10,41,17.30
2014,07,04,10,42,17.40
2014,07,04,10,43,17.50
2014,07,04,10,44,17.60
2014,07,04,10,45,17.60
2014,07,04,10,46,17.60
2014,07,04,10,47,17.60
2014,07,04,10,48,17.60
2014,07,04,10,49,17.50
2014,07,04,10,50,17.40
2014,07,04,10,51,17.30
2014,07,04,10,52,17.30
2014,07,04,10,53,17.40
2014,07,04,10,54,17.30
2014,07,04,10,55,17.30
2014,07,04,10,56,17.30
2014,07,04,10,57,17.40
2014,07,04,10,58,17.40
2014,07,04,10,59,17.50
2014,07,04,11,00,17.70
2014,07,04,11,01,17.60
2014,07,04,11,02,17.50
2014,07,04,11,03,17.50
2014,07,04,11,04,17.50
2014,07,04,11,05,17.50
2014,07,04,11,06,17.50
2014,07,04,11,07,17.60
2014,07,04,11,08,17.60
2014,07,04,11,09,17.50
2014,07,04,11,10,17.50
2014,07,04,11,11,17.40
2014,07,04,11,12,17.40
2014,07,04,11,13,17.30
2014,07,04,11,14,17.30
2014,07,04,11,15,17.30
2014,07,04,11,16,17.40
2014,07,04,11,17,17.40
2014,07,04,11,18,17.40
2014,07,04,11,19,17.40
2014,07,04,11,20,17.30
2014,07,04,11,21,17.40
2014,07,04,11,22,17.40
2014,07,04,11,23,17.30
2014,07,04,11,24,17.30
2014,07,04,11,25,17.20
2014,07,04,11,26,17.20
2014,07,04,11,27,17.20
2014,07,04,11,28,17.20
2014,07,04,11,29,17.20
2014,07,04,11,30,17.30
2014,07,04,11,31,17.50
2014,07,04,11,32,17.80
2014,07,04,11,33,18.00
2014,07,04,11,34,18.30
2014,07,04,11,35,18.40
2014,07,04,11,36,18.30
2014,07,04,11,37,18.30
2014,07,04,11,38,18.30
2014,07,04,11,39,18.20
2014,07,04,11,40,18.00
2014,07,04,11,41,17.90
2014,07,04,11,42,18.00
2014,07,04,11,43,18.20
2014,07,04,11,44,18.20
2014,07,04,11,45,18.20
2014,07,04,11,46,18.20
2014,07,04,11,47,18.10
2014,07,04,11,48,18.10
2014,07,04,11,49,18.00
2014,07,04,11,50,17.90
2014,07,04,11,51,17.90
2014,07,04,11,52,18.10
2014,07,04,11,53,17.90
2014,07,04,11,54,17.70
2014,07,04,11,55,17.70
2014,07,04,11,56,17.80
2014,07,04,11,57,17.90
2014,07,04,11,58,17.80
2014,07,04,11,59,17.80
2014,07,04,12,00,17.80
2014,07,04,12,01,17.80
2014,07,04,12,02,17.90
2014,07,04,12,03,17.90
2014,07,04,12,04,18.10
2014,07,04,12,05,18.20
2014,07,04,12,06,18.20
2014,07,04,12,07,18.10
2014,07,04,12,08,18.00
2014,07,04,12,09,17.90
2014,07,04,12,10,17.90
2014,07,04,12,11,18.10
2014,07,04,12,12,18.40
2014,07,04,12,13,18.50
2014,07,04,12,14,18.80
2014,07,04,12,15,19.10
2014,07,04,12,16,19.20
2014,07,04,12,17,19.40
2014,07,04,12,18,19.50
2014,07,04,12,19,19.70
2014,07,04,12,20,19.90
2014,07,04,12,21,20.00
2014,07,04,12,22,20.20
2014,07,04,12,23,20.40
2014,07,04,12,24,20.60
2014,07,04,12,25,20.80
2014,07,04,12,26,20.90
2014,07,04,12,27,20.90
2014,07,04,12,28,20.90
2014,07,04,12,29,21.00
2014,07,04,12,30,21.20
2014,07,04,12,31,21.30
2014,07,04,12,32,21.30
2014,07,04,12,33,21.10
2014,07,04,12,34,21.00
2014,07,04,12,35,20.80
2014,07,04,12,36,20.80
2014,07,04,12,37,20.70
2014,07,04,12,38,20.60
2014,07,04,12,39,20.50
2014,07,04,12,40,20.40
2014,07,04,12,41,20.30
2014,07,04,12,42,20.40
2014,07,04,12,43,20.50
2014,07,04,12,44,20.70
2014,07,04,12,45,20.80
2014,07,04,12,46,21.00
2014,07,04,12,47,21.00
2014,07,04,12,48,21.00
2014,07,04,12,49,20.90
2014,07,04,12,50,20.90
2014,07,04,12,51,20.90
2014,07,04,12,52,20.90
2014,07,04,12,53,21.00
2014,07,04,12,54,21.00
2014,07,04,12,55,20.80
2014,07,04,12,56,20.70
2014,07,04,12,57,20.60
2014,07,04,12,58,20.60
2014,07,04,12,59,20.70
2014,07,04,13,00,20.80
2014,07,04,13,01,20.80
2014,07,04,13,02,20.70
2014,07,04,13,03,20.60
2014,07,04,13,04,20.60
2014,07,04,13,05,20.60
2014,07,04,13,06,20.50
2014,07,04,13,07,20.50
2014,07,04,13,08,20.40
2014,07,04,13,09,20.30
2014,07,04,13,10,20.20
2014,07,04,13,11,20.10
2014,07,04,13,12,20.20
2014,07,04,13,13,20.20
2014,07,04,13,14,20.40
2014,07,04,13,15,20.60
2014,07,04,13,16,20.70
2014,07,04,13,17,20.70
2014,07,04,13,18,20.70
2014,07,04,13,19,20.80
2014,07,04,13,20,20.90
2014,07,04,13,21,21.00
2014,07,04,13,22,21.20
2014,07,04,13,23,21.40
2014,07,04,13,24,21.60
2014,07,04,13,25,21.70
2014,07,04,13,26,21.80
2014,07,04,13,27,21.80
2014,07,04,13,28,21.70
2014,07,04,13,29,21.60
2014,07,04,13,30,21.60
2014,07,04,13,31,21.60
2014,07,04,13,32,21.60
2014,07,04,13,33,21.40
2014,07,04,13,34,21.30
2014,07,04,13,35,21.30
2014,07,04,13,36,21.30
2014,07,04,13,37,21.40
2014,07,04,13,38,21.50
2014,07,04,13,39,21.60
2014,07,04,13,40,21.70
2014,07,04,13,41,21.60
2014,07,04,13,42,21.50
2014,07,04,13,43,21.40
2014,07,04,13,44,21.30
2014,07,04,13,45,21.30
2014,07,04,13,46,21.40
2014,07,04,13,47,21.60
2014,07,04,13,48,21.70
2014,07,04,13,49,21.80
2014,07,04,13,50,22.00
2014,07,04,13,51,22.00
2014,07,04,13,52,21.90
2014,07,04,13,53,21.90
2014,07,04,13,54,21.80
2014,07,04,13,55,21.80
2014,07,04,13,56,21.60
2014,07,04,13,57,21.60
2014,07,04,13,58,21.70
2014,07,04,13,59,21.70
2014,07,04,14,00,21.60
2014,07,04,14,01,21.60
2014,07,04,14,02,21.60
2014,07,04,14,03,21.60
2014,07,04,14,04,21.60
2014,07,04,14,05,21.60
2014,07,04,14,06,21.60
2014,07,04,14,07,21.60
2014,07,04,14,08,21.70
2014,07,04,14,09,21.80
2014,07,04,14,10,21.80
2014,07,04,14,11,21.80
2014,07,04,14,12,21.80
2014,07,04,14,13,21.90
2014,07,04,14,14,21.90
2014,07,04,14,15,21.80
2014,07,04,14,16,21.70
2014,07,04,14,17,21.60
2014,07,04,14,18,21.40
2014,07,04,14,19,21.30
2014,07,04,14,20,21.40
2014,07,04,14,21,21.60
2014,07,04,14,22,21.60
2014,07,04,14,23,21.70
2014,07,04,14,24,21.70
2014,07,04,14,25,21.70
2014,07,04,14,26,21.70
2014,07,04,14,27,21.60
2014,07,04,14,28,21.70
2014,07,04,14,29,21.80
2014,07,04,14,30,21.80
2014,07,04,14,31,21.80
2014,07,04,14,32,21.90
2014,07,04,14,33,21.80
2014,07,04,14,34,21.70
2014,07,04,14,35,21.60
2014,07,04,14,36,21.50
2014,07,04,14,37,21.40
2014,07,04,14,38,21.20
2014,07,04,14,39,21.10
2014,07,04,14,40,21.00
2014,07,04,14,41,20.90
2014,07,04,14,42,20.80
2014,07,04,14,43,20.70
2014,07,04,14,44,20.70
2014,07,04,14,45,20.70
2014,07,04,14,46,20.80
2014,07,04,14,47,20.90
2014,07,04,14,48,20.90
2014,07,04,14,49,20.90
2014,07,04,14,50,20.80
2014,07,04,14,51,20.70
2014,07,04,14,52,20.70
2014,07,04,14,53,20.70
2014,07,04,14,54,20.60
2014,07,04,14,55,20.50
2014,07,04,14,56,20.50
2014,07,04,14,57,20.50
2014,07,04,14,58,20.50
2014,07,04,14,59,20.50
2014,07,04,15,00,20.60
2014,07,04,15,01,20.60
2014,07,04,15,02,20.60
2014,07,04,15,03,20.60
2014,07,04,15,04,20.50
2014,07,04,15,05,20.50
2014,07,04,15,06,20.50
2014,07,04,15,07,20.40
2014,07,04,15,08,20.30
2014,07,04,15,09,20.20
2014,07,04,15,10,20.20
2014,07,04,15,11,20.20
2014,07,04,15,12,20.20
2014,07,04,15,13,20.20
2014,07,04,15,14,20.30
2014,07,04,15,15,20.30
2014,07,04,15,16,20.30
2014,07,04,15,17,20.40
2014,07,04,15,18,20.40
2014,07,04,15,19,20.40
2014,07,04,15,20,20.40
2014,07,04,15,21,20.40
2014,07,04,15,22,20.40
2014,07,04,15,23,20.40
2014,07,04,15,24,20.40
2014,07,04,15,25,20.30
2014,07,04,15,26,20.30
2014,07,04,15,27,20.30
2014,07,04,15,28,20.30
2014,07,04,15,29,20.30
2014,07,04,15,30,20.30
2014,07,04,15,31,20.20
2014,07,04,15,32,20.20
2014,07,04,15,33,20.20
2014,07,04,15,34,20.20
2014,07,04,15,35,20.20
2014,07,04,15,36,20.20
2014,07,04,15,37,20.10
2014,07,04,15,38,20.10
2014,07,04,15,39,20.10
2014,07,04,15,40,20.10
2014,07,04,15,41,19.90
2014,07,04,15,42,19.90
2014,07,04,15,43,19.90
2014,07,04,15,44,19.90
2014,07,04,15,45,19.90
2014,07,04,15,46,19.90
2014,07,04,15,47,19.90
2014,07,04,15,48,19.90
2014,07,04,15,49,19.90
2014,07,04,15,50,19.90
2014,07,04,15,51,19.90
2014,07,04,15,52,19.90
2014,07,04,15,53,19.80
2014,07,04,15,54,19.80
2014,07,04,15,55,19.80
2014,07,04,15,56,19.80
2014,07,04,15,57,19.70
2014,07,04,15,58,19.70
2014,07,04,15,59,19.70
2014,07,04,16,00,19.70
2014,07,04,16,01,19.60
2014,07,04,16,02,19.60
2014,07,04,16,03,19.60
2014,07,04,16,04,19.60
2014,07,04,16,05,19.60
2014,07,04,16,06,19.50
2014,07,04,16,07,19.40
2014,07,04,16,08,19.40
2014,07,04,16,09,19.30
2014,07,04,16,10,19.20
2014,07,04,16,11,19.20
2014,07,04,16,12,19.20
2014,07,04,16,13,19.10
2014,07,04,16,14,19.10
2014,07,04,16,15,19.10
2014,07,04,16,16,19.10
2014,07,04,16,17,19.10
2014,07,04,16,18,19.00
2014,07,04,16,19,18.90
2014,07,04,16,20,18.90
2014,07,04,16,21,18.90
2014,07,04,16,22,18.90
2014,07,04,16,23,18.90
2014,07,04,16,24,18.90
2014,07,04,16,25,18.90
2014,07,04,16,26,18.90
2014,07,04,16,27,18.90
2014,07,04,16,28,18.90
2014,07,04,16,29,18.90
2014,07,04,16,30,18.90
2014,07,04,16,31,18.90
2014,07,04,16,32,18.90
2014,07,04,16,33,18.90
2014,07,04,16,34,18.90
2014,07,04,16,35,18.90
2014,07,04,16,36,18.90
2014,07,04,16,37,18.90
2014,07,04,16,38,18.90
2014,07,04,16,39,18.90
2014,07,04,16,40,18.90
2014,07,04,16,41,18.80
2014,07,04,16,42,18.80
2014,07,04,16,43,18.80
2014,07,04,16,44,18.70
2014,07,04,16,45,18.70
2014,07,04,16,46,18.70
2014,07,04,16,47,18.70
2014,07,04,16,48,18.60
2014,07,04,16,49,18.60
2014,07,04,16,50,18.60
2014,07,04,16,51,18.60
2014,07,04,16,52,18.50
2014,07,04,16,53,18.50
2014,07,04,16,54,18.50
2014,07,04,16,55,18.50
2014,07,04,16,56,18.50
2014,07,04,16,57,18.50
2014,07,04,16,58,18.40
2014,07,04,16,59,18.40
2014,07,04,17,00,18.40
2014,07,04,17,01,18.30
2014,07,04,17,02,18.30
2014,07,04,17,03,18.30
2014,07,04,17,04,18.30
2014,07,04,17,05,18.30
2014,07,04,17,06,18.20
2014,07,04,17,07,18.20
2014,07,04,17,08,18.10
2014,07,04,17,09,18.10
2014,07,04,17,10,18.10
2014,07,04,17,11,18.10
2014,07,04,17,12,17.90
2014,07,04,17,13,17.90
2014,07,04,17,14,17.90
2014,07,04,17,15,17.90
2014,07,04,17,16,17.90
2014,07,04,17,17,17.90
2014,07,04,17,18,17.90
2014,07,04,17,19,17.90